Wind_Speed
31 32 31 30 31 31 31 31 31 30 31 32 31 30 29 28 29 29 28 27 28 28 29 29 28 29 30 32 32 30 31 33 34 35 34 35 35 35 35 35 35 35 36 37
32 32 30 31 31 31 31 32 31 31 32 32 32 32 30 29 29 29 29 28 28 28 29 30 29 29 29 31 33 33 32 33 35 35 34 34 35 36 36 36 36 37 37 37
33 31 30 31 31 31 31 32 32 32 33 33 33 32 30 29 30 30 29 28 27 28 29 30 30 30 30 30 32 34 32 34 34 34 36 36 36 38 38 38 37 37 38 38
34 32 32 31 31 31 31 31 32 33 33 33 33 34 29 29 30 30 29 28 27 28 29 29 30 30 31 30 30 32 33 34 34 34 35 37 37 37 37 38 38 38 40 40
34 33 33 33 32 32 32 31 32 33 33 33 33 34 30 29 30 29 30 29 28 28 29 28 29 29 30 31 30 31 32 32 35 36 35 37 38 38 37 38 38 38 39 40
36 36 35 34 33 33 32 32 33 33 34 35 32 34 33 29 30 30 30 30 29 28 28 28 28 29 30 30 31 31 32 32 34 35 36 36 37 38 38 38 38 38 38 39
38 38 37 36 36 35 34 34 34 35 36 36 33 34 34 31 30 30 30 30 30 29 29 29 29 29 29 30 30 32 32 31 32 34 36 36 37 38 38 39 39 38 38 39
39 39 38 38 37 37 36 36 36 37 38 37 35 36 34 32 31 31 31 30 30 30 30 30 30 30 29 29 30 31 31 31 32 33 34 35 36 37 38 39 40 39 40 40
39 39 38 38 37 37 37 37 37 38 39 39 39 36 34 33 32 32 32 32 32 31 31 31 30 30 30 30 30 32 32 32 33 33 34 35 35 36 37 39 39 39 40 41
39 39 38 38 37 38 38 38 37 38 39 41 40 37 35 34 33 34 34 34 33 32 31 31 31 30 31 31 32 33 33 33 33 34 34 35 36 36 37 37 39 40 42 42
39 40 40 39 38 38 37 38 39 40 40 40 41 38 35 35 35 35 34 33 33 33 32 32 31 32 32 32 33 34 34 34 34 34 35 36 37 38 38 38 39 40 41 41
40 42 42 41 39 38 38 38 39 40 40 41 41 38 35 34 35 35 34 34 34 33 33 33 33 33 34 34 35 34 34 34 34 34 34 36 37 38 38 39 40 40 41 42
40 42 43 43 42 41 41 39 39 40 42 42 41 39 36 35 35 35 35 35 35 35 35 34 34 34 35 36 36 36 35 35 35 35 36 37 38 39 39 39 39 39 41 42
41 42 42 42 42 43 43 42 41 42 43 43 42 40 38 37 36 35 35 36 36 36 36 36 35 35 36 36 36 36 36 36 37 37 36 37 37 39 40 40 39 39 40 41
42 43 42 42 42 42 43 43 43 43 44 44 42 41 39 39 38 37 37 37 38 36 36 36 37 37 37 37 37 37 37 37 37 37 37 38 38 39 39 39 38 38 38 39
41 42 42 42 41 42 43 44 44 44 44 44 44 43 40 39 39 38 38 39 39 39 38 38 38 38 38 38 37 37 37 37 37 37 38 38 38 39 39 38 38 38 38 38
42 41 41 40 40 42 44 41 42 43 43 43 44 43 42 40 40 40 40 40 40 39 38 38 38 38 38 37 37 37 37 38 38 38 38 38 38 39 39 38 38 38 38 38
40 41 41 40 39 41 39 39 40 41 41 41 42 42 42 42 41 41 41 41 41 41 40 39 40 39 39 39 38 38 39 38 38 38 38 38 38 38 38 38 38 39 39 39
39 39 41 41 40 39 36 36 37 39 40 40 41 40 41 41 41 41 41 41 42 42 41 41 41 40 39 39 39 39 39 38 39 38 38 38 38 38 39 38 39 39 40 40
36 37 39 40 41 40 36 34 34 35 37 36 38 38 39 40 41 39 40 41 41 41 41 40 40 40 40 40 40 40 40 40 40 39 39 39 40 40 40 40 40 40 41 41
34 35 36 37 39 39 37 35 33 35 34 34 35 36 37 37 39 38 38 39 40 40 40 40 39 39 39 40 40 40 40 41 41 41 40 40 40 41 41 41 42 41 41 42
34 35 36 36 38 36 34 34 34 34 33 33 34 35 35 36 36 37 37 38 39 40 40 40 40 39 40 40 40 40 40 41 41 41 41 41 41 41 42 42 43 44 44 44
32 33 35 36 36 36 34 34 34 34 34 33 33 33 34 35 36 37 37 37 37 38 39 40 41 41 41 41 40 40 40 41 41 41 41 41 41 42 42 42 43 43 44 44
32 32 33 34 34 34 35 34 34 34 33 33 33 33 33 34 35 36 37 37 37 38 38 38 39 40 40 41 40 40 40 40 40 41 41 41 41 41 41 42 43 43 43 43
31 31 31 32 32 33 34 34 34 33 32 32 32 33 33 34 34 35 36 37 37 38 37 37 37 37 38 38 39 39 39 39 39 40 40 40 40 41 41 42 43 43 44 44
30 31 31 30 30 32 32 33 33 32 31 31 32 32 32 33 33 34 35 36 37 38 38 38 38 37 37 38 38 38 38 39 39 39 40 40 41 41 42 43 44 45 45 46
Wind_Direction
270 270 271 272 271 272 271 271 271 271 272 270 267 266 267 267 267 268 269 269 265 262 258 257 255 253 250 248 248 249 249 247 246 246 246 244 243 244 246 246 247 249 250 250
270 271 271 270 270 271 270 270 270 270 270 271 269 268 268 267 268 268 268 267 264 261 257 256 257 255 253 250 248 249 250 249 248 247 247 246 243 245 246 247 248 250 250 251
270 271 269 269 269 270 270 270 269 269 269 270 270 269 269 267 267 268 267 267 265 261 258 257 258 258 256 255 251 248 251 250 248 248 247 246 246 247 247 249 250 250 250 251
268 268 268 268 269 268 268 269 268 268 268 269 270 272 269 268 266 265 266 266 265 262 259 259 258 259 258 257 255 253 251 250 250 250 248 247 247 249 250 251 251 251 250 250
267 266 267 267 269 268 268 268 268 268 268 268 269 272 271 269 267 266 266 266 264 263 261 261 260 260 259 257 257 257 253 251 251 252 251 249 248 250 252 253 254 253 252 251
265 265 265 266 266 266 266 266 267 267 267 267 270 273 273 272 270 269 267 266 264 263 262 261 260 260 259 258 258 257 256 254 252 251 251 252 252 252 253 255 256 255 254 253
263 263 265 265 265 263 263 264 266 267 266 268 272 273 273 274 272 270 269 267 264 263 262 262 261 261 260 259 259 258 257 256 253 253 253 253 254 254 256 257 257 258 257 254
264 263 263 264 264 264 263 263 265 268 269 270 270 272 272 273 274 271 269 266 263 263 262 261 261 262 260 258 259 259 258 257 255 256 256 255 255 257 257 258 260 260 260 258
264 264 263 262 263 263 263 262 264 266 267 268 268 271 271 273 274 272 270 267 265 264 264 263 261 261 259 258 259 260 259 260 259 258 256 256 255 257 257 258 259 259 258 258
261 262 262 262 261 260 261 262 262 262 265 266 267 270 272 272 274 271 269 268 267 266 265 264 261 260 260 259 259 260 260 261 262 259 256 255 255 258 259 260 259 258 257 258
260 260 260 259 259 259 259 259 260 262 262 264 267 269 271 272 272 272 269 267 266 264 264 263 260 260 260 260 261 262 262 261 263 263 259 257 258 259 260 261 260 258 258 257
258 259 260 259 259 259 259 259 259 260 261 262 264 267 268 269 269 269 267 266 266 264 263 263 262 261 262 262 262 263 264 263 263 263 262 261 261 261 262 262 262 260 257 256
257 259 260 260 259 258 258 258 258 259 259 260 261 263 265 266 266 267 265 264 264 263 263 263 264 263 264 264 264 265 264 263 263 265 265 264 264 264 265 265 264 262 260 258
256 258 259 260 262 261 260 259 260 259 259 260 260 262 261 263 265 265 265 264 264 263 262 263 263 264 265 265 265 265 265 264 264 266 266 267 267 267 266 264 264 264 261 258
256 257 258 259 259 261 262 260 259 259 259 260 261 261 261 261 263 264 264 263 262 262 261 262 263 264 265 266 265 264 264 264 265 267 267 268 269 268 267 266 265 265 263 261
256 258 258 258 259 261 262 261 261 261 260 260 260 259 259 259 259 261 261 261 262 261 261 261 261 263 264 265 266 264 264 265 266 267 269 271 269 268 266 267 266 264 263 262
255 258 260 260 260 261 262 263 263 262 261 261 261 261 260 260 258 259 261 262 262 260 260 262 262 263 264 265 266 265 265 266 267 269 271 272 271 268 265 266 265 264 263 262
257 259 261 262 261 261 263 265 266 265 263 262 262 261 260 260 260 259 261 262 262 261 261 261 261 262 264 265 265 265 266 266 267 269 270 270 270 268 266 265 264 264 264 264
258 258 260 262 263 264 263 265 266 266 263 262 263 262 261 261 261 261 261 262 262 263 263 262 261 261 263 264 265 265 266 267 266 267 268 269 268 268 267 266 265 265 265 265
257 257 258 260 263 264 265 267 267 267 265 263 263 263 263 262 261 262 262 262 262 263 263 262 262 262 263 264 264 264 264 265 266 266 266 266 266 267 267 266 266 266 265 265
256 258 260 261 263 264 265 266 268 268 269 267 265 263 262 263 264 263 262 261 262 263 263 262 262 264 264 264 264 264 264 264 265 265 265 265 266 267 267 267 267 267 267 266
255 256 257 259 261 264 266 265 267 270 271 270 267 265 264 264 264 263 262 262 261 262 264 263 263 264 265 265 264 264 264 265 265 265 265 266 267 268 267 267 268 269 270 270
258 257 258 259 263 266 266 267 268 269 270 270 268 265 265 265 264 263 263 263 263 264 265 265 265 265 265 265 265 265 265 266 266 267 267 267 268 269 269 269 269 269 270 271
259 259 258 259 262 264 264 265 266 268 268 268 267 266 265 265 264 263 263 264 265 264 265 265 266 266 266 265 266 266 267 268 268 268 269 269 270 270 270 270 270 271 271 272
261 260 260 260 261 262 262 262 262 264 265 264 264 266 267 265 264 263 263 263 264 265 265 265 266 266 266 266 266 267 268 268 269 270 270 270 271 271 271 271 271 271 272 272
260 257 257 260 260 260 261 261 261 262 263 264 264 265 267 267 266 265 264 264 264 265 265 266 266 266 266 266 266 267 267 268 269 270 271 272 272 273 273 273 273 272 273 273
Height
5712 5713 5713 5714 5713 5713 5712 5712 5712 5713 5712 5712 5712 5713 5715 5715 5715 5716 5716 5716 5717 5717 5718 5719 5720 5721 5723 5724 5727 5728 5730 5733 5735 5738 5740 5743 5746 5748 5751 5753 5755 5758 5760 5763
5705 5706 5707 5705 5705 5705 5705 5705 5705 5706 5705 5704 5705 5706 5708 5708 5708 5709 5709 5709 5710 5711 5711 5713 5714 5715 5717 5718 5719 5721 5723 5725 5727 5729 5731 5734 5737 5740 5742 5744 5747 5749 5751 5754
5696 5699 5698 5698 5698 5697 5698 5698 5698 5698 5698 5697 5697 5699 5701 5701 5701 5702 5702 5703 5703 5704 5705 5706 5707 5709 5710 5711 5712 5714 5716 5717 5719 5721 5723 5725 5728 5730 5733 5735 5738 5740 5742 5744
5688 5690 5690 5690 5690 5690 5690 5691 5691 5690 5689 5690 5690 5689 5694 5694 5694 5695 5696 5696 5697 5698 5699 5700 5701 5702 5703 5704 5705 5706 5708 5710 5711 5712 5714 5717 5720 5722 5724 5726 5728 5731 5733 5735
5680 5681 5681 5682 5683 5682 5683 5683 5683 5683 5682 5682 5683 5682 5686 5687 5687 5688 5689 5690 5691 5691 5692 5693 5694 5695 5696 5697 5698 5699 5700 5702 5703 5704 5706 5709 5711 5713 5715 5717 5719 5721 5723 5725
5671 5671 5672 5674 5674 5675 5675 5675 5675 5674 5674 5675 5677 5676 5677 5679 5680 5681 5682 5682 5683 5684 5685 5686 5687 5688 5688 5689 5690 5691 5692 5694 5695 5697 5699 5701 5703 5704 5705 5708 5710 5711 5713 5715
5661 5662 5663 5664 5665 5666 5667 5668 5667 5666 5666 5667 5670 5668 5670 5672 5672 5673 5674 5675 5675 5677 5678 5679 5679 5681 5681 5682 5683 5684 5685 5687 5688 5689 5691 5693 5694 5695 5696 5698 5700 5702 5704 5706
5649 5652 5654 5655 5656 5657 5658 5659 5660 5659 5659 5660 5661 5660 5664 5665 5664 5665 5666 5667 5667 5669 5670 5671 5672 5673 5674 5674 5675 5676 5678 5679 5680 5681 5682 5684 5685 5686 5687 5689 5690 5692 5694 5696
5638 5640 5643 5644 5646 5647 5648 5649 5652 5651 5650 5651 5652 5654 5656 5657 5657 5657 5658 5659 5660 5661 5662 5664 5665 5665 5666 5666 5667 5668 5670 5671 5672 5673 5674 5675 5676 5677 5678 5679 5680 5681 5683 5685
5627 5629 5632 5634 5635 5637 5639 5640 5641 5640 5640 5641 5643 5646 5648 5649 5649 5649 5649 5650 5651 5653 5654 5655 5656 5657 5658 5659 5659 5660 5661 5662 5663 5663 5665 5666 5667 5668 5668 5668 5669 5670 5672 5673
5616 5617 5620 5622 5625 5627 5629 5630 5631 5631 5632 5633 5634 5639 5640 5640 5640 5640 5641 5641 5642 5644 5645 5647 5648 5649 5649 5650 5651 5652 5653 5653 5654 5654 5655 5656 5657 5657 5658 5658 5658 5659 5661 5663
5605 5606 5607 5611 5614 5616 5617 5620 5621 5622 5623 5624 5625 5631 5630 5631 5631 5631 5632 5633 5634 5635 5636 5638 5639 5640 5641 5642 5643 5644 5644 5644 5645 5645 5646 5647 5647 5647 5648 5648 5648 5648 5650 5652
5593 5595 5596 5599 5604 5605 5606 5608 5610 5611 5612 5613 5616 5621 5621 5621 5622 5622 5623 5624 5625 5626 5628 5629 5630 5631 5632 5633 5633 5634 5635 5635 5636 5636 5637 5637 5638 5637 5638 5637 5638 5638 5639 5641
5580 5582 5585 5588 5590 5592 5594 5597 5599 5599 5600 5602 5606 5609 5611 5612 5612 5613 5614 5614 5615 5617 5618 5619 5620 5621 5623 5624 5624 5625 5625 5626 5626 5627 5627 5627 5627 5627 5627 5627 5627 5628 5629 5630
5568 5570 5573 5576 5578 5580 5582 5585 5587 5588 5590 5593 5596 5598 5601 5602 5603 5603 5604 5605 5606 5607 5608 5610 5611 5612 5613 5614 5614 5615 5616 5616 5616 5617 5617 5617 5617 5617 5617 5617 5617 5618 5619 5620
5557 5559 5561 5564 5567 5568 5569 5573 5575 5577 5579 5581 5584 5587 5590 5591 5593 5593 5594 5595 5596 5597 5598 5599 5600 5602 5603 5603 5604 5605 5605 5606 5606 5607 5607 5607 5607 5607 5608 5608 5608 5608 5609 5610
5546 5548 5550 5552 5556 5556 5558 5563 5565 5566 5568 5570 5572 5576 5578 5580 5582 5583 5584 5585 5586 5587 5588 5589 5590 5591 5592 5593 5594 5595 5596 5596 5597 5597 5597 5597 5597 5597 5598 5598 5599 5600 5600 5601
5536 5538 5539 5541 5544 5544 5552 5553 5554 5555 5557 5559 5560 5563 5566 5568 5570 5571 5572 5574 5574 5576 5577 5578 5579 5581 5582 5583 5583 5584 5585 5586 5586 5587 5587 5587 5587 5587 5587 5588 5588 5589 5590 5591
5526 5528 5529 5530 5531 5533 5539 5541 5543 5543 5545 5548 5549 5551 5554 5556 5557 5560 5561 5562 5564 5565 5566 5567 5568 5569 5570 5571 5572 5573 5574 5575 5575 5576 5576 5576 5576 5577 5577 5577 5578 5578 5579 5580
5517 5518 5520 5521 5522 5523 5529 5531 5531 5533 5535 5538 5538 5540 5542 5544 5546 5550 5550 5551 5552 5554 5555 5555 5557 5558 5559 5560 5561 5562 5563 5564 5564 5565 5565 5565 5565 5566 5566 5566 5567 5567 5568 5568
5507 5508 5509 5511 5511 5513 5519 5521 5522 5524 5527 5527 5528 5529 5531 5533 5535 5538 5539 5540 5541 5542 5543 5544 5545 5546 5547 5548 5549 5550 5551 5552 5552 5553 5553 5554 5554 5554 5555 5555 5555 5556 5556 5556
5498 5499 5500 5502 5502 5507 5510 5511 5513 5514 5516 5517 5518 5519 5520 5522 5524 5525 5527 5528 5529 5531 5532 5533 5534 5535 5536 5536 5537 5538 5539 5540 5540 5541 5542 5542 5543 5542 5543 5543 5543 5543 5543 5543
5489 5491 5492 5494 5497 5498 5500 5502 5503 5504 5506 5507 5508 5510 5511 5512 5513 5515 5516 5517 5518 5519 5521 5522 5522 5523 5524 5525 5525 5526 5527 5528 5528 5529 5529 5530 5530 5530 5530 5530 5530 5530 5530 5530
5480 5481 5482 5484 5486 5489 5491 5492 5493 5495 5497 5498 5499 5500 5501 5502 5503 5504 5505 5506 5507 5508 5510 5510 5511 5512 5513 5513 5514 5514 5515 5516 5516 5517 5517 5517 5518 5518 5518 5518 5518 5518 5518 5517
5471 5472 5473 5475 5478 5479 5481 5483 5484 5486 5487 5488 5489 5490 5491 5491 5492 5493 5494 5495 5496 5497 5499 5499 5500 5500 5501 5502 5502 5503 5504 5504 5505 5505 5505 5505 5505 5505 5505 5505 5505 5505 5505 5504
5462 5464 5465 5467 5469 5470 5472 5474 5475 5477 5478 5479 5480 5481 5481 5482 5482 5483 5484 5485 5486 5487 5487 5488 5489 5489 5490 5491 5491 5491 5492 5492 5493 5494 5494 5493 5493 5493 5493 5492 5492 5492 5491 5491